SL-12 DEB, 41697

Orbit data source: Space-Track

SL-12 DEB, 41697 is space debris in HEO originally from a launch on Mon, 01 Mar 2010 UTC launched from the Tyuratam Missile And Space Complex (TTMTR). Debris objects in space refer to the collection of defunct objects orbiting the Earth. Examples of debris include non-operational satellites, rocket bodies, and fragments generated from explosions, collisions, or faulty payload assembly.

Loading next visibility...
Identifier
41697, 2010-007P
Orbit
HEO
Last TLE update
8 months ago
Origin
Manufacturer
RKKE
Mission
Spacecraft
Bus & Motor
Unknown
Mass
Unknown
Launch date (UTC)
2010-03-01 (15 years ago)
Launch vehicle
Unknown
Launch site
Tyuratam Missile And Space Complex (TTMTR)
Object type
Payload
Rocket body
Debris
Shape & HBR
Unknown
Radar Cross Section
Small (<0.1 m²)

Expand to show TLE details & history

TLE from 8 months ago
0 SL-12 DEB
1 41697U 10007P   24256.79819583 -.00020108  00000-0 -67108+0 0  9998
2 41697  65.4025 189.0905 5500021 315.9869  11.4576  4.16119980152626
Epoch: 2024-09-12T19:09Z
Definitive object data (Epoch: 2024-09-12T19:09:24.119Z)
Latitude
0.00004°
Longitude
-90.54936°
Altitude
1,785.892 km
Speed
8.559 km/s
True Right ascension
12h 36m 19s
True Declination
0° 00' 00"
Sunlit
Object was in daylight at TLE epoch
Visualization TLE readout
Latitude
-24.62539°
Longitude
27.2638°
Altitude
5,971.582 km
Speed
6.367 km/s
Apparent Right ascension
22h 02m 10s
Apparent Declination
-36° 59' 39"
Sunlit
Object is in daylight
Visualization observer readout
Local Sidereal Time
14:29:35
Azimuth
109.502° ESE
Elevation
-38.819°
Doppler factor
1
Orbital elements
Apogee altitude
18,927.995 km
Perigee altitude
968.76 km
Semi-major axis
16,326.515 km
Eccentricity
0.5500021
Inclination
65.4025°
RAAN
189.0905°
Arg. of periapsis
315.9869°
True anomaly
43.98119°
Mean anomaly
11.4576°
Eccentric anomaly
24.55153°
Mean motion
1.04041 °/min
BSTAR
-0.67108
Orbital period
346.02 mins
Loading maneuver chart data...
Loading SW <> Apogee altitude chart data...
Loading historical data...
Loading historical data...
Loading historical data...
Loading historical data...
Loading historical data...
Loading historical data...
Loading historical data...

SL-12 DEB Visibility forecast

Observer location: undefined°, undefined°

Span
Click to sort rows by Start time (UTC) header in descending order
Start Az.
Max El. time (UTC)
Max El. Az.
Max El.
End time (UTC)
End Az.
257 mins2025-05-09 07:47:46.803Z315.391° NNW2025-05-09 10:23:46.803Z270.519° WNW44.836°2025-05-09 12:04:46.803Z183.843° SSW
68 mins2025-05-09 14:47:46.803Z332.063° NNW2025-05-09 15:19:46.803Z321.768° NNW12.456°2025-05-09 15:55:46.803Z311.084° NW
196 mins2025-05-10 00:56:46.803Z213.03° SW2025-05-10 01:15:46.803Z304.415° NW44.846°2025-05-10 04:12:46.803Z60.421° ENE
|